Home   Weather   Chania   Past weeks

Flag for Greece Past Weather in Chania, Crete, Greece — Yesterday and Last 2 Weeks

Now
57 °F

Clear.


Feels Like: 54 °F
Forecast: 53 / 67 °F
Wind: 14 mph from West

Location: Souda Airport

Current Time: Nov 22, 2017 at 6:38:54 pm

Latest Report: Nov 22, 2017 at 5:50 pm


Visibility: 10 mi

Pressure: 30.09 "Hg

Humidity: 88%

Dew Point: 54 °F

Location of ChaniaLocation

Past Weather in Chania — Graph

°F

Chania Temperature Yesterday

Maximum temperature yesterday: 59 °F (at 12:20 pm)
Minimum temperature yesterday: 46 °F (at 8:50 pm)
Average temperature yesterday: 53 °F

High & Low Weather Summary for the Past Weeks

 TemperatureHumidityPressure
High75 °F (Nov 8, 2:20 pm)100% (Nov 8, 4:50 am)30.15 "Hg (Nov 8, 4:50 am)
Low46 °F (Nov 21, 8:50 pm)53% (Nov 16, 7:20 am)29.62 "Hg (Nov 13, 2:50 pm)
Average61 °F82%29.98 "Hg
* Reported Nov 7 5:20 pm — Nov 22 5:20 pm, Chania. Weather by CustomWeather, © 2017

Note: Actual official high and low records may vary slightly from our data, if they occured in-between our weather recording intervals... More about our weather records

Advertising

Chania Weather History for the Previous 24 Hours

Scroll right to see more
 ConditionsComfort  
Time TempWeatherWind HumidityBarometerVisibility
5:20 pm
Wed, Nov 22
61 °FClear.14 mph68%30.09 "Hg10 mi
4:50 pm61 °FSunny.15 mph72%30.09 "Hg10 mi
4:20 pm63 °FPassing clouds.17 mph73%30.09 "HgN/A
3:50 pm64 °FPassing clouds.20 mph68%30.09 "HgN/A
3:20 pm64 °FPassing clouds.17 mph64%30.09 "HgN/A
2:50 pm64 °FPassing clouds.20 mph64%30.09 "HgN/A
2:20 pm64 °FPassing clouds.18 mph64%30.09 "HgN/A
1:50 pm64 °FPassing clouds.20 mph64%30.09 "HgN/A
1:20 pm64 °FPassing clouds.17 mph64%30.12 "HgN/A
12:50 pm64 °FPassing clouds.18 mph64%30.12 "HgN/A
12:20 pm63 °FPassing clouds.16 mph73%30.12 "HgN/A
11:50 am63 °FPassing clouds.17 mph73%30.12 "HgN/A
10:50 am63 °FPassing clouds.16 mph68%30.15 "HgN/A
10:20 am61 °FSunny.16 mph72%30.15 "Hg10 mi
9:50 am61 °FSunny.16 mph72%30.15 "Hg10 mi
9:20 am57 °FSunny.No wind72%30.12 "Hg10 mi
8:50 am55 °FSunny.No wind77%30.12 "Hg10 mi
7:50 am52 °FSunny.No wind77%30.12 "Hg10 mi
7:20 am50 °FPassing clouds.No wind76%30.12 "HgN/A
6:50 am50 °FPassing clouds.No wind76%30.12 "HgN/A
6:20 am50 °FPassing clouds.5 mph71%30.12 "HgN/A
5:50 am48 °FPassing clouds.7 mph82%30.12 "HgN/A
5:20 am46 °FPassing clouds.7 mph87%30.12 "HgN/A
4:50 am46 °FPassing clouds.5 mph87%30.12 "HgN/A
4:20 am46 °FPassing clouds.No wind82%30.12 "HgN/A
3:50 am46 °FPassing clouds.No wind82%30.12 "HgN/A
3:20 am46 °FPassing clouds.No wind87%30.12 "HgN/A
2:50 am46 °FPassing clouds.No wind87%30.12 "HgN/A
1:50 am46 °FPassing clouds.No wind87%30.12 "HgN/A
1:20 am46 °FPassing clouds.No wind93%30.12 "HgN/A
12:50 am46 °FPassing clouds.7 mph87%30.12 "HgN/A
12:20 am46 °FPassing clouds.5 mph82%30.15 "HgN/A
11:50 pm
Tue, Nov 21
48 °FPassing clouds.No wind82%30.15 "HgN/A
11:20 pm48 °FPassing clouds.No wind82%30.15 "HgN/A
10:50 pm48 °FPassing clouds.No wind82%30.15 "HgN/A
10:20 pm46 °FPassing clouds.No wind87%30.15 "HgN/A
9:50 pm46 °FPassing clouds.No wind87%30.15 "HgN/A
9:20 pm46 °FPassing clouds.No wind87%30.15 "HgN/A
8:50 pm46 °FPassing clouds.No wind87%30.15 "HgN/A
8:20 pm48 °FPassing clouds.No wind82%30.15 "HgN/A
7:50 pm48 °FPassing clouds.No wind82%30.12 "HgN/A
7:20 pm50 °FPassing clouds.No wind82%30.12 "HgN/A
6:50 pm50 °FPassing clouds.No wind82%30.12 "HgN/A
6:20 pm52 °FPassing clouds.No wind82%30.12 "HgN/A
Weather by CustomWeather, © 2017

See weather overview